Simultaneous Nadir Overpasses (SNOs) Predictions

Prediction of SNOs between GOES-17 and TERRA Satellite Orbit:

Table of predicted SNOs for the next 14.0 days since TLE Epoch: 3/2/2024
Index Date Time (GOES-17) GOES-17 Lat,Lon TERRA Lat,Lon Distance(km) Time Diff (sec)
1 03/02/2024 05:03:05 0.00,-104.69 -0.48,-107.06 269.09 80
2 03/04/2024 04:43:27 0.01,-104.69 0.38,-102.97 195.82 80
3 03/04/2024 17:03:29 -0.01,-104.69 0.64,-107.84 357.31 80
4 03/06/2024 16:49:11 -0.01,-104.69 -0.23,-103.75 107.55 80
5 03/07/2024 05:09:20 0.01,-104.68 -0.84,-108.64 450.09 80
6 03/09/2024 04:49:42 0.01,-104.68 0.06,-104.55 15.34 80
7 03/11/2024 04:32:43 0.01,-104.68 0.92,-100.45 480.91 80
8 03/11/2024 16:52:45 -0.01,-104.69 0.10,-105.33 72.29 80
9 03/13/2024 16:38:25 -0.01,-104.69 -0.71,-101.22 393.69 80
10 03/14/2024 04:58:35 0.01,-104.69 -0.27,-106.13 163.39 80
